| time (UTC) | temp F | wind direction | speed knots | gust knots | rain 1hr in | rain 24hr in | rain mn in | humidity % | barometer mb |
| 20260507070018 | 39 | 360 | 0.9 | 5.2 | 0.00 | 0.85 | 0.00 | 85 | 1013.6 |
| 20260507064512 | 39 | 330 | 3.5 | 7.0 | 0.00 | 0.85 | 0.00 | 84 | 1013.6 |
| 20260507063010 | 39 | 333 | 2.6 | 7.0 | 0.00 | 0.85 | 0.00 | 84 | 1013.7 |
| 20260507061508 | 39 | 318 | 4.3 | 7.8 | 0.00 | 0.85 | 0.00 | 84 | 1013.8 |
| 20260507060004 | 40 | 325 | 3.5 | 11.3 | 0.00 | 0.85 | 0.00 | 84 | 1013.8 |
| 20260507054503 | 40 | 318 | 4.3 | 11.3 | 0.00 | 0.85 | 0.00 | 85 | 1014.0 |
| 20260507053100 | 40 | 355 | 6.1 | 10.4 | 0.00 | 0.85 | 0.00 | 86 | 1013.9 |
| 20260507051607 | 40 | 9 | 4.3 | 8.7 | 0.00 | 0.85 | 0.00 | 87 | 1013.7 |
| 20260507050107 | 41 | 344 | 5.2 | 8.7 | 0.00 | 0.85 | 0.00 | 88 | 1014.0 |
| 20260507044556 | 41 | 345 | 8.7 | 13.0 | 0.00 | 0.85 | 0.85 | 91 | 1013.9 |
| 20260507043050 | 42 | 27 | 7.8 | 13.0 | 0.00 | 0.85 | 0.85 | 92 | 1013.9 |
| 20260507041549 | 42 | 350 | 5.2 | 10.4 | 0.00 | 0.85 | 0.85 | 92 | 1013.6 |
| 20260507040048 | 43 | 349 | 4.3 | 7.0 | 0.00 | 0.85 | 0.85 | 93 | 1013.6 |
| 20260507034544 | 43 | 9 | 5.2 | 8.7 | 0.00 | 0.86 | 0.85 | 94 | 1013.1 |
| 20260507033047 | 43 | 333 | 4.3 | 7.8 | 0.00 | 0.86 | 0.85 | 94 | 1012.8 |
| 20260507031542 | 43 | 319 | 4.3 | 10.4 | 0.00 | 0.86 | 0.85 | 94 | 1013.0 |
| 20260507030036 | 43 | 299 | 7.0 | 12.2 | 0.00 | 0.86 | 0.85 | 96 | 1013.1 |
| 20260507024535 | 44 | 304 | 6.1 | 10.4 | 0.01 | 0.89 | 0.85 | 98 | 1013.3 |
| 20260507023031 | 44 | 301 | 1.7 | 5.2 | 0.01 | 0.89 | 0.85 | 98 | 1012.9 |
| 20260507021546 | 44 | 284 | 3.5 | 7.0 | 0.01 | 0.89 | 0.85 | 98 | 1013.2 |
| 20260507020032 | 44 | 289 | 0.9 | 3.5 | 0.01 | 0.89 | 0.85 | 98 | 1012.9 |
| 20260507014530 | 44 | 296 | 1.7 | 3.5 | 0.01 | 0.89 | 0.85 | 99 | 1013.1 |
| 20260507013034 | 44 | 237 | 2.6 | 4.3 | 0.00 | 0.88 | 0.84 | 99 | 1013.0 |
| 20260507011532 | 44 | 241 | 4.3 | 7.0 | 0.00 | 0.88 | 0.84 | 99 | 1013.1 |
| 20260507010039 | 44 | 244 | 3.5 | 6.1 | 0.00 | 0.88 | 0.84 | 99 | 1012.8 |
| 20260507004528 | 43 | 247 | 2.6 | 4.3 | 0.00 | 0.88 | 0.84 | 99 | 1012.8 |
| 20260507003026 | 43 | 225 | 1.7 | 4.3 | 0.00 | 0.88 | 0.84 | 99 | 1012.4 |
| 20260507001528 | 44 | 187 | 1.7 | 4.3 | 0.00 | 0.88 | 0.84 | 99 | 1012.4 |
| 20260507000003 | 44 | 9 | 0.0 | 0.9 | 0.00 | 0.88 | 0.84 | 99 | 1012.2 |
| 20260506234502 | 44 | 27 | 0.0 | 2.6 | 0.00 | 0.88 | 0.84 | 99 | 1012.1 |
| 20260506233102 | 44 | 281 | 0.0 | 0.0 | 0.00 | 0.88 | 0.84 | 99 | 1012.1 |
| 20260506231530 | 43 | 281 | 0.9 | 2.6 | 0.00 | 0.88 | 0.84 | 99 | 1011.9 |
| 20260506230032 | 43 | 27 | 0.0 | 0.0 | 0.00 | 0.88 | 0.84 | 99 | 1011.8 |
| 20260506224527 | 43 | 27 | 0.0 | 0.0 | 0.00 | 0.88 | 0.84 | 99 | 1011.7 |
| 20260506223024 | 43 | 27 | 0.9 | 2.6 | 0.00 | 0.88 | 0.84 | 99 | 1011.4 |
| 20260506221524 | 43 | 27 | 0.9 | 3.5 | 0.00 | 0.88 | 0.84 | 98 | 1011.3 |
| 20260506220030 | 43 | 27 | 2.6 | 4.3 | 0.00 | 0.88 | 0.84 | 99 | 1011.2 |
| 20260506214521 | 43 | 27 | 1.7 | 4.3 | 0.00 | 0.88 | 0.84 | 98 | 1011.4 |
| 20260506213027 | 43 | 27 | 2.6 | 7.8 | 0.00 | 0.88 | 0.84 | 99 | 1011.2 |
| 20260506211521 | 43 | 27 | 0.9 | 4.3 | 0.00 | 0.88 | 0.84 | 99 | 1011.2 |
| 20260506210018 | 42 | 27 | 2.6 | 8.7 | 0.00 | 0.88 | 0.84 | 98 | 1011.0 |
| 20260506204513 | 42 | 28 | 6.1 | 9.6 | 0.00 | 0.88 | 0.84 | 98 | 1011.0 |
| 20260506203021 | 43 | 27 | 2.6 | 7.8 | 0.00 | 0.88 | 0.84 | 98 | 1010.6 |
| 20260506201510 | 44 | 11 | 6.1 | 10.4 | 0.00 | 0.88 | 0.84 | 98 | 1010.5 |
| 20260506200006 | 44 | 9 | 6.1 | 10.4 | 0.00 | 0.88 | 0.84 | 98 | 1010.3 |
| 20260506194507 | 43 | 351 | 8.7 | 11.3 | 0.00 | 0.88 | 0.84 | 99 | 1010.1 |
| 20260506193004 | 43 | 360 | 7.8 | 11.3 | 0.00 | 0.88 | 0.84 | 99 | 1010.2 |
| 20260506191502 | 43 | 346 | 6.1 | 11.3 | 0.00 | 0.88 | 0.84 | 99 | 1009.9 |
| 20260506190004 | 43 | 345 | 4.3 | 9.6 | 0.00 | 0.88 | 0.84 | 99 | 1009.9 |
| 20260506184610 | 43 | 22 | 5.2 | 8.7 | 0.00 | 1.03 | 0.84 | 99 | 1009.7 |
| 20260506183105 | 43 | 9 | 7.0 | 12.2 | 0.00 | 1.03 | 0.84 | 99 | 1009.7 |
| 20260506181600 | 43 | 355 | 7.0 | 11.3 | 0.01 | 1.03 | 0.84 | 99 | 1009.5 |
| 20260506180056 | 43 | 27 | 6.1 | 11.3 | 0.01 | 1.03 | 0.84 | 99 | 1009.1 |
| 20260506174552 | 44 | 27 | 6.1 | 9.6 | 0.03 | 1.03 | 0.84 | 99 | 1008.8 |
| 20260506173055 | 43 | 9 | 7.0 | 10.4 | 0.04 | 1.03 | 0.84 | 99 | 1008.6 |
| 20260506171550 | 43 | 27 | 7.8 | 10.4 | 0.05 | 1.02 | 0.83 | 99 | 1008.6 |
| 20260506170050 | 43 | 27 | 6.1 | 12.2 | 0.05 | 1.02 | 0.83 | 99 | 1008.6 |
| 20260506164520 | 43 | 27 | 6.1 | 9.6 | 0.05 | 1.00 | 0.81 | 99 | 1008.6 |
| 20260506163019 | 42 | 27 | 7.0 | 12.2 | 0.05 | 0.99 | 0.80 | 99 | 1008.5 |
| 20260506161521 | 42 | 27 | 7.8 | 13.9 | 0.04 | 0.97 | 0.78 | 99 | 1008.5 |
| 20260506160029 | 42 | 20 | 7.8 | 13.0 | 0.04 | 0.97 | 0.78 | 99 | 1008.4 |
| 20260506154514 | 42 | 28 | 9.6 | 13.0 | 0.04 | 0.95 | 0.76 | 99 | 1008.1 |
| 20260506153014 | 41 | 27 | 9.6 | 12.2 | 0.05 | 0.94 | 0.75 | 99 | 1008.4 |
| 20260506151600 | 41 | 28 | 7.0 | 13.0 | 0.07 | 0.93 | 0.74 | 99 | 1008.1 |
| 20260506150043 | 41 | 22 | 6.1 | 11.3 | 0.10 | 0.93 | 0.74 | 99 | 1008.1 |
| 20260506144540 | 41 | 9 | 5.2 | 10.4 | 0.12 | 0.91 | 0.72 | 99 | 1007.9 |
| 20260506143047 | 40 | 27 | 6.1 | 12.2 | 0.14 | 0.89 | 0.70 | 99 | 1007.8 |
| 20260506141539 | 40 | 27 | 8.7 | 13.9 | 0.15 | 0.86 | 0.67 | 99 | 1007.6 |
| 20260506140039 | 40 | 18 | 8.7 | 13.9 | 0.15 | 0.83 | 0.64 | 98 | 1007.6 |
| 20260506134506 | 40 | 24 | 8.7 | 15.6 | 0.16 | 0.79 | 0.60 | 98 | 1007.6 |
| 20260506133005 | 40 | 27 | 8.7 | 14.8 | 0.16 | 0.75 | 0.56 | 98 | 1007.5 |
| 20260506131601 | 41 | 16 | 9.6 | 14.8 | 0.16 | 0.71 | 0.52 | 98 | 1007.8 |
| 20260506130128 | 41 | 27 | 8.7 | 13.0 | 0.16 | 0.67 | 0.48 | 98 | 1007.9 |
| 20260506124556 | 41 | 28 | 8.7 | 11.3 | 0.16 | 0.63 | 0.44 | 98 | 1007.8 |
| 20260506123056 | 41 | 25 | 9.6 | 13.9 | 0.16 | 0.59 | 0.40 | 99 | 1007.8 |
| 20260506121526 | 41 | 355 | 6.1 | 13.0 | 0.16 | 0.55 | 0.36 | 98 | 1007.6 |
| 20260506120022 | 41 | 28 | 9.6 | 15.6 | 0.16 | 0.51 | 0.32 | 98 | 1007.3 |
| 20260506114521 | 42 | 355 | 7.8 | 14.8 | 0.15 | 0.47 | 0.28 | 98 | 1007.3 |
| 20260506113014 | 43 | 139 | 9.6 | 12.2 | 0.14 | 0.43 | 0.24 | 98 | 1006.9 |
| 20260506111510 | 44 | 139 | 8.7 | 13.0 | 0.12 | 0.39 | 0.20 | 98 | 1007.0 |
| 20260506110007 | 44 | 139 | 7.0 | 10.4 | 0.10 | 0.35 | 0.16 | 98 | 1007.1 |
| 20260506104503 | 45 | 139 | 4.3 | 7.8 | 0.07 | 0.31 | 0.12 | 98 | 1006.9 |
| 20260506103008 | 45 | 139 | 2.6 | 4.3 | 0.06 | 0.28 | 0.10 | 98 | 1007.0 |
| 20260506101501 | 45 | 139 | 3.5 | 6.1 | 0.05 | 0.27 | 0.08 | 98 | 1006.9 |
| 20260506100001 | 45 | 139 | 1.7 | 7.8 | 0.04 | 0.25 | 0.06 | 98 | 1006.8 |
| 20260506094601 | 45 | 139 | 4.3 | 9.6 | 0.03 | 0.24 | 0.05 | 98 | 1006.7 |
| 20260506093028 | 45 | 139 | 6.1 | 10.4 | 0.03 | 0.23 | 0.04 | 98 | 1007.0 |
| 20260506091528 | 45 | 139 | 3.5 | 8.7 | 0.02 | 0.22 | 0.03 | 98 | 1007.0 |
| 20260506090022 | 45 | 139 | 5.2 | 7.8 | 0.01 | 0.21 | 0.02 | 98 | 1007.6 |
| 20260506084522 | 45 | 139 | 1.7 | 6.1 | 0.02 | 0.21 | 0.02 | 98 | 1007.7 |
| 20260506083020 | 46 | 139 | 6.1 | 7.8 | 0.01 | 0.20 | 0.01 | 98 | 1007.7 |
| 20260506081518 | 45 | 141 | 0.0 | 1.7 | 0.01 | 0.20 | 0.01 | 98 | 1007.3 |
| 20260506073047 | 45 | 141 | 0.0 | 1.7 | 0.00 | 0.19 | 0.00 | 98 | 1007.2 |
| 20260506071600 | 45 | 141 | 0.0 | 3.5 | 0.00 | 0.19 | 0.00 | 98 | 1007.2 |